Location: Cassano d�Adda
(45.5333°N, 9.5167°E)
Time: 03:24:00
(UTC+00:00)

NOSS 5 (C) - Pass Details

Date: 08 December 2019
Orbit: 376 x 1736 km, 63.3° (Epoch: 26 January)

Event Time Altitude Azimuth Distance (km) Brightness Sun altitude
Rises 17:37:27 0° 323° (NW) 2,326 8.4 -20.0°
Reaches altitude 10° 17:39:18 10° 325° (NW) 1,533 7.4 -20.3°
Enters shadow 17:42:34 75° 46° (NE) 520 4.4 -20.9°
